Terminal Aerodrome Forecast
Issued by NWS

Home | Current Version | Previous Version | Text Only | Print | Product List | Glossary Off
Versions: 1 2 3 4 5 6 7 8 9 10 11 12 13 14 15 16 17 18 19 20 21 22 23

000
FTUS43 KABR 171730
TAFPIR
TAF
KPIR 171730Z 1718/1818 23011G17KT P6SM SKC
     FM172100 24009KT P6SM SCT250
     FM172300 19008KT P6SM SCT200
     FM180200 10009KT P6SM BKN200
     FM181100 05009KT P6SM VCTS BKN150CB
     FM181300 04013KT P6SM BKN100=

USA.gov is the U.S. government's official web portal to all federal, state and local government web resources and services.